User: anonymous   Login
Location: ????????
(38.4362°N, 22.8767°E)
Time: 20:31:36
(UTC+00:00)
Language:

CZ-2C R/B - Orbit

View from above orbital plane
View from above orbital plane
View from above satellite
View from above satellite

Ground track
Ground track

The orbit data is extracted from the following two-line orbital elements,

1 31114U 07010B   24165.38011566  .00000198  00000-0  11058-3 0  9992
2 31114  98.3323 301.6685 0058923 340.6042  19.2894 14.19794195889698
Epoch (UTC): 13 June 2024 09:07:21
Eccentricity: 0.0058923
inclination: 98.3323°
perigee height: 783 km
apogee height: 868 km
right ascension of ascending node: 301.6685°
argument of perigee: 340.6042°
revolutions per day: 14.19794195
mean anomaly at epoch: 19.2894°
orbit number at epoch: 88969

The dashed part of the orbit path shows where the satellite is in the earth's shadow,  

DLR